Date String (YYYY-MM-DD hh:mm:ss) UTC,Instrument flags,Ambient pressure (hPa),Sample flow (lpm),Bypass flow (lpm),Sample temperature (°C),Ambient temperature (°C),ASC tube jacket temperature (°C),LED temperature (°C),Box temperature (°C),Sample RH (%),Span deviation,Mass concentration (μg/m³),Mass concentration (μg/m³),Mass concentration (μg/m³)
DateTimeUTC,F1_M11,P_M11,Q1_M11,Q2_M11,T1_M11,T2_M11,T3_M11,T4_M11,T5_M11,U1_M11,ZSPAN_M11,X2_M11,X0_M11,X1_M11
2021-10-17 20:00:00,,0827.3,4.99,0.00,30.0,28.9,00.0,38.9,31.8,10.0,0000.0,0002.34,0010.30,0001.54
2021-10-17 20:01:00,,0827.0,4.99,0.00,30.0,29.1,00.0,39.0,31.9,10.0,0000.0,0002.41,0010.88,0001.55
2021-10-17 20:02:00,,0827.0,5.01,0.00,30.1,29.2,00.0,39.0,31.9,09.9,0000.0,0002.46,0011.19,0001.55
2021-10-17 20:03:00,,0827.0,5.00,0.00,30.1,29.3,00.0,39.0,32.0,09.6,0000.0,0002.48,0011.60,0001.55
2021-10-17 20:04:00,,0827.0,5.00,0.00,30.2,29.4,00.0,39.0,32.0,09.6,0000.0,0002.50,0010.18,0001.55
2021-10-17 20:05:00,,0827.0,4.99,0.00,30.2,29.5,00.0,39.1,32.1,09.7,0000.0,0002.52,0010.23,0001.55
2021-10-17 20:06:00,,0826.9,5.01,0.00,30.2,27.9,00.0,39.1,31.7,09.6,0000.0,0002.53,0010.42,0001.56
2021-10-17 20:07:00,,0827.0,4.98,0.00,30.0,26.0,00.0,39.0,31.1,09.8,0000.0,0002.53,0010.40,0001.56
2021-10-17 20:08:00,,0826.9,5.01,0.00,29.8,26.0,00.0,39.0,31.1,10.0,0000.0,0002.64,0010.68,0001.56
2021-10-17 20:09:00,,0826.8,5.00,0.00,29.8,26.4,00.0,39.0,31.2,10.0,0000.0,0002.68,0010.74,0001.58
2021-10-17 20:10:00,,0827.1,5.01,0.00,29.7,26.9,00.0,38.9,31.3,10.0,0000.0,0002.68,0010.85,0001.58
2021-10-17 20:11:00,,0827.2,4.99,0.00,29.7,27.4,00.0,38.9,31.4,10.0,0000.0,0002.68,0010.71,0001.58
2021-10-17 20:12:00,,0826.9,5.01,0.00,29.7,27.8,00.0,38.9,31.5,10.0,0000.0,0002.68,0009.93,0001.59
2021-10-17 20:13:00,,0826.8,4.99,0.00,29.8,28.2,00.0,38.9,31.5,10.0,0000.0,0002.69,0009.90,0001.59
2021-10-17 20:14:00,,0826.8,5.00,0.00,29.8,28.4,00.0,38.9,31.6,09.8,0000.0,0002.76,0009.03,0001.61
2021-10-17 20:15:00,,0826.8,5.00,0.00,29.8,28.7,00.0,38.9,31.7,09.8,0000.0,0002.75,0009.23,0001.62
2021-10-17 20:16:00,,0826.8,5.00,0.00,29.9,28.9,00.0,38.9,31.8,09.7,0000.0,0002.82,0009.19,0001.64
2021-10-17 20:17:00,,0826.7,5.01,0.00,30.0,29.0,00.0,38.9,31.8,09.8,0000.0,0002.83,0009.53,0001.64
2021-10-17 20:18:00,,0826.7,5.00,0.00,30.0,29.2,00.0,38.9,31.9,09.6,0000.0,0002.84,0010.18,0001.65
2021-10-17 20:19:00,,0826.7,4.99,0.00,30.0,29.3,00.0,39.0,32.0,09.4,0000.0,0002.77,0010.18,0001.65
2021-10-17 20:20:00,,0826.7,5.01,0.00,30.1,29.4,00.0,39.0,32.0,09.4,0000.0,0002.75,0010.44,0001.65
2021-10-17 20:21:00,,0826.7,4.99,0.00,30.1,29.5,00.0,39.0,32.0,09.6,0000.0,0002.75,0010.21,0001.65
2021-10-17 20:22:00,,0826.7,5.00,0.00,30.2,29.0,00.0,39.0,32.0,09.5,0000.0,0002.82,0010.13,0001.66
2021-10-17 20:23:00,,0826.6,5.01,0.00,30.1,27.0,00.0,39.0,31.4,09.5,0000.0,0002.91,0010.11,0001.67
2021-10-17 20:24:00,,0826.6,4.99,0.00,29.8,25.9,00.0,39.0,31.0,09.4,0000.0,0002.94,0010.45,0001.68
2021-10-17 20:25:00,,0826.6,5.01,0.00,29.8,26.2,00.0,39.0,31.1,09.6,0000.0,0002.86,0010.53,0001.66
2021-10-17 20:26:00,,0826.5,5.00,0.00,29.7,26.7,00.0,38.9,31.2,09.7,0000.0,0002.89,0010.36,0001.66
2021-10-17 20:27:00,,0826.5,5.00,0.00,29.7,27.2,00.0,38.9,31.3,09.7,0000.0,0002.89,0010.21,0001.67
2021-10-17 20:28:00,,0826.5,4.99,0.00,29.7,27.6,00.0,38.8,31.4,09.6,0000.0,0002.92,0009.50,0001.67
2021-10-17 20:29:00,,0826.6,5.00,0.00,29.7,28.0,00.0,38.8,31.5,09.4,0000.0,0002.94,0008.70,0001.67
2021-10-17 20:30:00,,0826.5,5.01,0.00,29.8,28.3,00.0,38.8,31.6,09.2,0000.0,0002.92,0008.48,0001.67
2021-10-17 20:31:00,,0826.5,5.00,0.00,29.8,28.6,00.0,38.8,31.7,09.6,0000.0,0002.92,0008.52,0001.67
2021-10-17 20:32:00,,0826.6,4.99,0.00,29.9,28.8,00.0,38.9,31.7,09.7,0000.0,0002.93,0008.51,0001.70
2021-10-17 20:33:00,,0826.5,5.01,0.00,29.9,29.0,00.0,38.9,31.8,09.7,0000.0,0002.84,0008.38,0001.70
2021-10-17 20:34:00,,0826.5,4.99,0.00,30.0,29.1,00.0,38.9,31.9,09.6,0000.0,0002.76,0008.17,0001.71
2021-10-17 20:35:00,,0826.5,5.00,0.00,30.0,29.3,00.0,38.9,31.9,09.6,0000.0,0002.78,0008.32,0001.71
2021-10-17 20:36:00,,0826.6,5.00,0.00,30.1,29.4,00.0,38.9,32.0,09.5,0000.0,0002.82,0008.78,0001.74
2021-10-17 20:37:00,,0826.5,4.99,0.00,30.1,28.8,00.0,39.0,31.9,09.3,0000.0,0002.81,0008.72,0001.75
2021-10-17 20:38:00,,0826.5,5.02,0.00,30.0,26.6,00.0,39.0,31.3,09.2,0000.0,0002.80,0008.84,0001.75
2021-10-17 20:39:00,,0826.5,4.99,0.00,29.8,25.7,00.0,38.9,31.0,09.3,0000.0,0002.87,0008.94,0001.76
2021-10-17 20:40:00,,0826.5,5.01,0.00,29.7,26.1,00.0,38.9,31.1,09.5,0000.0,0002.91,0008.91,0001.76
2021-10-17 20:41:00,,0826.5,5.00,0.00,29.6,26.6,00.0,38.8,31.1,09.6,0000.0,0002.97,0009.31,0001.79
2021-10-17 20:42:00,,0826.5,5.00,0.00,29.6,27.1,00.0,38.8,31.2,09.5,0000.0,0002.98,0009.11,0001.81
2021-10-17 20:43:00,,0826.4,4.99,0.00,29.6,27.5,00.0,38.8,31.3,09.7,0000.0,0003.00,0009.03,0001.83
2021-10-17 20:44:00,,0826.4,5.00,0.00,29.7,27.9,00.0,38.8,31.4,09.6,0000.0,0003.06,0009.02,0001.84
2021-10-17 20:45:00,,0826.4,5.00,0.00,29.7,28.2,00.0,38.8,31.5,10.0,0000.0,0003.11,0009.22,0001.86
2021-10-17 20:46:00,,0826.4,5.00,0.00,29.7,28.5,00.0,38.8,31.6,10.2,0000.0,0003.14,0008.75,0001.91
2021-10-17 20:47:00,,0826.4,5.01,0.00,29.8,28.7,00.0,38.8,31.7,10.1,0000.0,0003.18,0008.34,0001.95
2021-10-17 20:48:00,,0826.3,5.00,0.00,29.8,28.8,00.0,38.8,31.7,10.1,0000.0,0003.23,0008.60,0002.01
2021-10-17 20:49:00,,0826.3,5.01,0.00,29.9,29.0,00.0,38.8,31.8,10.1,0000.0,0003.28,0008.56,0002.05
2021-10-17 20:50:00,,0826.3,5.01,0.00,29.9,29.1,00.0,38.8,31.9,10.0,0000.0,0003.30,0008.59,0002.11
2021-10-17 20:51:00,,0826.3,4.99,0.00,30.0,29.3,00.0,38.9,31.9,10.0,0000.0,0003.33,0008.92,0002.18
2021-10-17 20:52:00,,0826.3,5.00,0.00,30.0,29.4,00.0,38.9,32.0,09.9,0000.0,0003.33,0008.45,0002.22
2021-10-17 20:53:00,,0826.3,5.00,0.00,30.1,29.4,00.0,38.9,32.0,09.8,0000.0,0003.36,0008.44,0002.26
2021-10-17 20:54:00,,0826.3,5.01,0.00,30.1,29.5,00.0,39.0,32.1,09.7,0000.0,0003.39,0009.22,0002.30
2021-10-17 20:55:00,,0826.2,4.99,0.00,30.2,29.2,00.0,39.0,32.0,09.4,0000.0,0003.39,0009.53,0002.31
2021-10-17 20:56:00,,0826.2,5.01,0.00,30.1,27.1,00.0,39.0,31.5,09.6,0000.0,0003.41,0009.57,0002.33
2021-10-17 20:57:00,,0826.2,5.00,0.00,29.9,26.0,00.0,39.0,31.1,09.9,0000.0,0003.39,0009.56,0002.33
2021-10-17 20:58:00,,0826.2,5.00,0.00,29.8,26.2,00.0,38.9,31.2,10.2,0000.0,0003.42,0009.95,0002.36
2021-10-17 20:59:00,,0826.2,5.00,0.00,29.7,26.7,00.0,38.9,31.2,10.2,0000.0,0003.39,0009.61,0002.39
